sat.trackr.live / text

‹ back to catalog

STARLINK-31661

NORAD 59735 · 2024-090F

PAYLOAD ACTIVE UNKNOWN

§ Identity

Operator
Country
US
Launch date
2024-05-13
Launch site
AFETR
Launch vehicle
Mass (kg)
RCS (m²)

Purposes: comms

External: N2YO · Heavens-Above · Gunter

§ Orbital elements

Epoch: 2026-05-24T22:38:52.408032Z

Period
94.27 min
Inclination
43.0032°
Eccentricity
0.0001526
Mean motion
15.27589262 rev/d
Perigee alt
482.0 km
Apogee alt
484.1 km
Semi-major
6,861.2 km
B*
9.0288e-5
RAAN
105.8093°
Arg perigee
276.1083°
Mean anomaly
83.9594°
Rev number
11,518

§ Raw data

STARLINK-316611 59735U 24090F   26144.94366213  .00002224  00000+0  90288-4 0  99952 59735  43.0032 105.8093 0001526 276.1083  83.9594 15.27589262115181

JSON: /api/v1/satellites/59735 · /tle

For live sub-satellite position, see the globe view (requires WebGL).

§ Visibility from observer

Set your observer location to see the next 7 days of passes ≥ 10°. The values pass through the URL so the page stays shareable.

No JS? Fill the form by hand. The geolocation button needs JavaScript.